Location: Proctor
(47.8934°N, 114.3048°W)
Time: 07:51:14
(UTC+00:00)

POLYITAN 1 - Pass Details

Date: 30 June 2022
Orbit: 586 x 605 km, 98.0° (Epoch: 15 August)

Event Time Altitude Azimuth Distance (km) Brightness Sun altitude
Rises 09:11:01 0° 17° (NNE) 2,858 ? -16.1°
Reaches altitude 10° 09:13:14 10° 22° (NNE) 1,954 ? -16.0°
Maximum altitude 09:17:24 53° 100° (E) 743 ? -15.7°
Enters shadow 09:19:54 22° 170° (S) 1,315 ? -15.6°
